Powrót do katalogu

STARLINK-37738

AktywnyŁącznośćSSO
NORAD 69316·PAYLOAD·🇺🇸 United States

Wystrzelony May 30, 2026 z Vandenberg Space Force Base

Loading…

Następne Przeloty (najbliższe 24 godziny)

TLE

ŚwieżeSource: CelesTrak SupGP

Epoka: Sep 14, 2026, 23:00 UTC

1 69316C 26119W   26257.95881944  .00054409  00000+0  16892-2 0  2570
2 69316  97.2829 282.8352 0001478  85.5316  76.5432 15.33408081    13

Śledź STARLINK-37738 w czasie rzeczywistym z AllMySat

Download on the App Store